Wind_Speed
17 20 24 25 26 26 26 24 18 44 37 46 43 35 33 37 40 41 38 35 37 42 38 34 33 32 32 35 40 31 23 19 16 16 16 12 23 28 28 22 17 25 29 29
15 19 21 25 25 26 27 30 34 33 38 27 28 35 38 37 38 33 33 36 40 36 25 28 27 30 28 32 41 41 18 15 15 12 8 9 11 12 19 26 25 18 21 19
7 10 16 25 25 20 17 12 16 24 25 22 26 30 32 34 34 32 33 33 32 24 23 26 28 28 27 30 35 24 15 10 7 5 5 3 7 8 9 12 18 23 25 24
6 7 3 10 6 7 11 11 13 19 23 25 27 27 28 30 30 29 34 38 25 20 22 25 25 26 28 28 28 7 9 10 9 7 7 8 8 8 9 10 11 13 16 18
6 15 20 25 17 13 10 20 19 21 17 20 24 30 30 27 27 29 30 34 25 23 18 24 23 27 31 14 7 11 9 10 10 10 11 12 12 13 13 13 12 11 12 15
10 5 6 1 1 8 12 22 19 9 15 19 22 25 29 30 26 29 28 27 26 16 15 18 19 26 13 12 9 8 6 7 8 10 12 13 15 18 19 17 15 13 13 16
24 11 13 23 21 11 12 14 12 17 14 21 24 23 26 27 29 29 28 28 24 18 15 12 8 8 11 11 10 10 11 11 11 11 14 16 18 20 19 21 18 15 15 17
18 13 13 23 20 18 18 19 16 15 18 21 20 21 22 24 26 26 27 24 17 16 12 15 12 10 9 10 12 7 1 3 7 14 20 24 24 24 21 20 21 18 16 17
13 14 16 16 13 21 18 14 17 19 16 22 23 22 23 26 28 27 27 28 26 20 12 11 10 13 12 9 5 3 5 7 10 12 18 25 31 26 23 22 23 23 23 21
23 29 26 25 24 26 23 20 22 24 26 22 24 25 28 29 26 29 27 30 20 14 6 11 14 12 10 9 9 9 8 11 12 12 17 17 13 15 21 24 20 18 19 17
25 29 29 26 20 18 19 24 28 30 29 27 26 28 30 32 28 29 24 25 17 17 14 14 12 10 10 11 11 11 11 12 13 13 15 16 13 16 19 20 20 15 14 15
29 21 23 25 20 21 25 30 29 28 31 28 26 27 29 34 34 29 32 20 24 19 17 13 15 15 15 13 12 13 14 14 13 13 13 17 17 16 19 19 18 16 16 17
21 17 23 27 27 25 29 30 31 32 34 36 37 36 35 38 34 27 27 15 17 23 20 19 19 17 13 12 11 14 15 15 12 12 10 14 17 15 15 17 15 17 16 15
18 20 24 22 25 25 27 28 31 33 32 34 35 37 37 38 40 34 33 24 23 27 26 28 22 17 13 15 16 18 18 16 15 14 12 11 14 8 10 12 12 13 13 13
7 11 16 17 20 22 24 27 31 34 35 36 37 35 34 36 35 35 34 25 28 26 30 25 22 18 17 19 20 21 19 18 16 16 13 10 9 6 9 11 12 14 13 13
6 11 17 21 21 22 23 24 26 26 29 29 28 26 25 23 23 25 29 31 28 31 26 28 18 18 22 23 22 20 19 19 19 18 14 12 10 11 11 13 14 14 14 14
11 14 18 19 21 23 25 25 25 26 27 27 27 24 22 22 22 21 22 30 31 31 32 29 26 23 26 25 22 19 20 20 19 19 17 15 14 16 16 16 17 17 18 18
15 20 23 24 24 25 25 25 22 21 21 21 20 20 18 19 19 18 18 19 28 34 30 32 30 29 30 28 29 25 22 24 20 19 19 16 17 18 18 18 17 17 18 17
18 21 24 26 27 27 24 22 19 17 16 19 20 19 18 18 17 18 17 18 20 24 30 32 37 32 36 28 29 27 23 23 20 18 19 17 18 18 17 16 15 14 13 12
22 24 26 27 26 24 22 20 17 15 17 18 15 12 14 16 17 17 17 18 19 20 21 25 29 27 26 28 29 25 25 21 19 18 18 17 18 17 15 13 13 13 12 12
25 26 27 25 22 21 21 19 17 16 15 14 12 11 11 11 12 15 16 17 17 19 23 25 30 30 29 29 28 26 21 18 18 18 18 18 17 16 14 14 13 13 13 14
23 22 22 21 19 19 20 19 17 16 14 13 11 10 9 9 9 9 9 11 15 10 12 14 23 26 27 26 22 18 18 19 18 18 18 17 16 15 14 13 12 12 14 15
20 21 20 19 18 19 18 17 15 14 13 12 10 11 10 10 10 11 10 12 10 8 12 12 14 17 19 20 20 19 18 18 18 17 17 16 14 13 13 13 12 12 13 14
20 20 18 18 19 18 16 15 12 12 11 10 9 9 10 14 12 10 9 9 7 7 9 10 13 14 15 16 16 16 17 17 17 16 15 14 13 12 12 12 12 12 13 14
19 18 18 17 17 17 16 13 11 11 9 8 8 8 9 8 9 7 7 7 7 6 6 8 10 12 13 14 15 16 16 15 14 13 12 12 12 11 11 11 11 12 12 13
17 16 15 14 14 14 14 12 11 10 10 9 8 7 7 8 8 7 5 5 5 7 8 10 12 13 14 14 13 13 13 12 12 12 12 11 10 10 11 11 12 12 13 15
15 14 12 12 13 14 14 12 10 9 9 9 10 7 7 8 8 7 6 6 9 12 13 12 12 12 12 12 12 12 12 12 11 11 10 10 11 11 12 12 12 14 17 18
Wind_Direction
260 254 255 254 245 244 255 257 252 272 276 282 289 301 305 308 309 302 299 294 299 296 290 271 265 263 275 277 281 266 239 246 256 266 266 254 255 253 256 258 268 240 252 253
254 260 261 260 256 257 259 262 266 276 278 287 286 292 296 302 307 301 306 303 301 295 286 278 266 269 271 265 268 281 215 231 230 237 243 248 253 255 254 250 252 258 257 252
259 251 270 277 270 261 261 255 263 265 284 288 292 293 297 304 301 306 306 312 299 287 283 277 266 271 271 262 274 279 198 199 215 230 249 260 267 260 258 261 253 252 255 260
226 260 283 263 250 288 285 268 291 298 299 295 290 293 296 295 297 304 304 303 288 281 283 288 283 274 270 265 274 157 196 220 235 244 249 252 255 259 266 264 262 259 265 264
220 207 271 276 278 275 290 289 309 305 299 294 288 284 290 288 293 292 304 305 280 289 278 290 283 276 274 241 188 219 221 242 255 259 268 270 266 259 254 245 249 250 247 250
199 194 236 246 157 284 295 291 302 305 307 315 310 309 303 303 299 300 288 302 300 287 290 288 296 276 166 178 213 210 218 255 278 293 300 294 283 263 260 255 251 243 236 241
227 232 259 265 284 276 242 282 287 301 305 305 312 327 322 321 325 308 304 294 292 271 270 268 229 160 195 191 204 211 222 242 258 267 268 274 281 282 268 251 253 254 251 245
225 224 252 261 265 242 244 244 263 283 301 303 317 326 327 324 325 315 305 292 276 245 224 217 210 197 205 205 192 191 226 316 324 324 310 288 282 273 266 251 251 262 277 260
228 243 260 266 261 257 254 282 262 281 288 304 309 316 317 318 322 319 317 299 252 218 213 229 216 186 182 189 226 264 282 295 286 284 296 286 279 268 247 251 250 251 268 262
264 262 267 274 273 276 272 268 268 268 273 279 290 298 306 314 320 321 327 323 202 184 223 217 193 202 225 250 269 276 280 293 299 305 320 295 290 244 248 249 252 259 260 259
260 275 281 276 272 261 257 259 261 260 265 275 283 290 297 301 310 314 316 317 236 186 184 221 235 246 264 268 271 272 280 290 294 308 324 301 266 248 242 247 252 245 243 242
277 283 279 274 271 260 257 259 261 269 270 277 281 285 286 289 297 300 309 317 200 182 187 217 255 269 271 278 283 284 283 292 302 308 316 302 270 248 245 243 234 225 230 235
291 275 271 272 273 271 271 273 274 274 275 278 280 281 280 278 282 281 289 282 227 207 208 218 237 250 271 289 288 281 277 282 291 293 297 307 288 253 241 234 227 223 224 235
272 277 274 280 280 281 283 280 280 280 279 280 279 276 274 274 278 271 270 258 251 246 238 220 211 232 257 278 292 280 285 288 294 286 284 298 296 251 224 209 200 216 230 242
298 280 286 288 289 293 291 283 279 279 278 276 276 280 279 269 266 260 260 253 243 238 241 236 226 227 248 275 277 275 278 288 296 289 278 279 281 244 201 208 217 236 244 244
305 300 296 294 292 294 297 294 288 283 280 280 281 283 283 275 263 265 254 246 245 244 239 245 264 270 276 275 268 273 284 282 287 290 271 260 253 249 231 232 237 242 249 249
322 311 300 299 299 298 300 299 294 286 282 282 284 283 274 273 262 264 263 243 237 243 246 245 247 251 260 263 255 279 290 281 274 284 266 255 249 248 243 242 244 248 250 248
312 315 323 321 315 310 308 304 298 289 284 281 278 275 269 270 266 261 265 263 244 242 242 238 239 242 244 258 261 274 285 275 269 271 262 257 249 244 243 244 245 243 243 243
314 315 317 317 316 313 312 305 300 291 284 284 283 279 266 257 263 259 261 258 255 252 248 243 232 235 236 246 258 268 276 269 262 264 260 252 245 242 239 238 238 236 234 227
312 312 310 313 315 312 314 309 299 289 290 291 289 278 269 256 254 254 259 256 257 253 247 247 239 232 234 242 255 267 270 260 252 256 249 239 236 231 227 223 227 235 239 239
308 308 308 310 313 311 311 310 298 292 296 290 281 276 277 262 250 255 265 275 272 262 247 241 232 232 236 245 256 260 250 245 250 242 231 228 220 219 228 239 243 245 251 254
309 311 312 313 313 313 310 309 300 295 298 290 271 269 290 275 260 267 270 281 292 259 235 225 222 228 235 240 236 237 243 241 225 222 220 213 216 229 240 243 242 242 247 254
316 319 319 317 315 314 313 309 299 291 295 294 271 259 264 290 278 273 285 291 286 258 224 221 214 213 221 232 233 227 217 211 210 205 208 219 230 234 235 238 244 249 251 251
317 319 318 317 316 317 317 311 300 287 292 298 273 264 266 273 280 270 278 292 279 250 233 223 219 214 207 204 202 200 194 193 200 211 223 228 229 230 234 238 240 243 250 256
313 315 317 316 316 321 321 313 302 288 278 287 273 264 274 252 257 257 278 288 271 248 215 195 180 176 179 179 181 186 195 204 213 221 226 229 231 230 231 237 245 251 258 266
312 315 318 317 324 328 325 318 302 291 276 268 269 259 252 249 256 255 262 276 242 199 175 169 174 179 184 189 194 201 208 215 219 221 221 221 225 233 241 248 256 267 279 286
312 313 316 324 332 338 337 326 308 294 285 271 260 264 253 247 243 243 250 243 207 191 187 189 195 198 199 202 207 213 218 219 219 221 226 232 238 244 252 263 277 286 290 292
Height
2998 3002 3002 3002 3002 3002 3001 3005 3006 2997 3003 2996 2991 2989 2988 2985 2983 2979 2974 2971 2968 2965 2963 2964 2965 2966 2966 2965 2961 2961 2959 2958 2959 2957 2956 2954 2955 2958 2959 2960 2962 2964 2971 2974
2993 2996 2997 2995 2994 2994 2995 2995 2994 2995 2985 2994 2989 2984 2979 2977 2974 2970 2967 2964 2960 2957 2954 2954 2955 2956 2957 2956 2954 2955 2952 2954 2954 2952 2952 2951 2951 2952 2953 2957 2960 2962 2967 2967
2989 2991 2991 2985 2981 2984 2985 2986 2987 2984 2983 2982 2981 2978 2973 2970 2968 2965 2961 2957 2952 2949 2947 2945 2946 2947 2947 2948 2947 2947 2948 2949 2950 2949 2948 2948 2949 2949 2950 2953 2957 2960 2961 2960
2985 2991 2992 2979 2977 2979 2980 2980 2981 2979 2976 2975 2971 2968 2966 2966 2962 2959 2956 2950 2946 2943 2941 2940 2939 2939 2940 2942 2941 2941 2945 2948 2948 2947 2946 2947 2947 2947 2948 2950 2951 2952 2951 2951
2983 2984 2977 2971 2973 2975 2974 2974 2975 2973 2971 2970 2967 2962 2959 2959 2958 2954 2949 2944 2939 2938 2936 2936 2935 2935 2936 2936 2938 2940 2941 2943 2944 2945 2945 2945 2945 2946 2947 2947 2946 2945 2946 2949
2976 2980 2978 2967 2967 2969 2970 2966 2968 2966 2966 2964 2962 2955 2952 2949 2948 2946 2943 2940 2935 2933 2932 2932 2931 2929 2931 2931 2935 2938 2937 2939 2939 2939 2939 2941 2942 2944 2945 2944 2942 2940 2942 2945
2969 2969 2964 2961 2963 2963 2966 2968 2963 2961 2960 2959 2956 2950 2945 2944 2942 2939 2935 2933 2930 2930 2929 2931 2932 2930 2930 2931 2934 2935 2936 2937 2937 2937 2938 2938 2938 2938 2938 2938 2939 2940 2940 2941
2964 2964 2960 2957 2959 2959 2958 2955 2956 2956 2956 2953 2949 2943 2943 2942 2937 2933 2929 2926 2924 2925 2925 2929 2930 2929 2930 2931 2933 2933 2933 2933 2933 2934 2934 2933 2932 2931 2931 2933 2933 2935 2936 2937
2958 2954 2953 2951 2952 2952 2951 2950 2951 2950 2949 2946 2942 2939 2939 2937 2932 2927 2922 2918 2917 2921 2923 2925 2927 2928 2929 2930 2931 2930 2930 2930 2930 2929 2926 2925 2924 2924 2926 2928 2929 2930 2932 2933
2950 2947 2946 2947 2947 2945 2946 2945 2944 2942 2942 2940 2936 2935 2932 2930 2927 2923 2918 2910 2907 2915 2919 2924 2926 2926 2927 2928 2928 2927 2927 2926 2924 2922 2921 2919 2918 2919 2920 2923 2924 2925 2927 2928
2939 2938 2939 2937 2936 2936 2936 2937 2935 2934 2934 2932 2930 2928 2926 2923 2922 2919 2917 2913 2914 2913 2916 2922 2924 2924 2925 2925 2925 2925 2924 2922 2920 2918 2916 2916 2914 2914 2915 2917 2919 2920 2921 2923
2927 2931 2929 2927 2928 2928 2926 2927 2928 2926 2924 2924 2923 2921 2919 2917 2917 2915 2911 2912 2907 2909 2912 2917 2920 2920 2921 2922 2922 2921 2919 2918 2916 2914 2912 2913 2911 2909 2910 2911 2913 2915 2916 2918
2921 2922 2920 2920 2919 2919 2918 2918 2918 2916 2915 2913 2913 2911 2910 2909 2909 2910 2908 2908 2908 2908 2909 2911 2914 2916 2917 2917 2917 2916 2916 2915 2912 2911 2909 2909 2908 2904 2904 2906 2908 2910 2912 2914
2914 2914 2912 2913 2910 2909 2908 2908 2907 2906 2905 2903 2901 2901 2900 2899 2899 2900 2901 2904 2903 2902 2904 2905 2906 2910 2911 2912 2913 2913 2912 2911 2909 2908 2905 2905 2905 2901 2901 2904 2905 2908 2909 2911
2908 2907 2905 2905 2903 2902 2899 2897 2896 2895 2894 2892 2890 2888 2886 2885 2886 2887 2890 2893 2894 2894 2896 2898 2899 2903 2905 2907 2908 2908 2907 2906 2905 2904 2903 2902 2902 2900 2900 2902 2903 2905 2907 2908
2905 2904 2901 2899 2897 2896 2893 2891 2888 2886 2884 2882 2881 2880 2878 2876 2876 2877 2878 2882 2884 2886 2888 2890 2892 2897 2899 2900 2901 2902 2901 2900 2901 2901 2900 2899 2898 2899 2899 2900 2902 2903 2904 2905
2901 2900 2898 2896 2892 2889 2886 2883 2879 2876 2874 2873 2872 2871 2870 2869 2869 2870 2870 2872 2875 2878 2881 2884 2887 2889 2892 2894 2895 2896 2896 2896 2895 2896 2896 2895 2894 2896 2896 2897 2898 2900 2900 2901
2898 2896 2893 2889 2885 2882 2878 2875 2871 2869 2867 2866 2864 2864 2864 2863 2863 2863 2864 2863 2866 2869 2873 2876 2878 2881 2884 2887 2889 2891 2891 2891 2890 2891 2891 2890 2890 2891 2892 2893 2894 2895 2896 2897
2893 2890 2887 2883 2879 2874 2871 2868 2865 2863 2861 2859 2858 2858 2857 2858 2858 2858 2859 2859 2860 2862 2864 2867 2868 2871 2876 2879 2882 2884 2885 2885 2884 2885 2885 2884 2885 2887 2888 2889 2890 2891 2892 2894
2888 2884 2881 2877 2873 2868 2865 2862 2860 2858 2856 2854 2853 2852 2852 2852 2852 2853 2853 2854 2854 2855 2855 2857 2860 2864 2869 2872 2874 2876 2877 2878 2878 2879 2879 2880 2882 2883 2884 2886 2887 2888 2890 2891
2881 2878 2874 2871 2867 2864 2860 2858 2855 2853 2852 2850 2849 2848 2848 2847 2847 2848 2848 2848 2847 2846 2848 2849 2853 2858 2862 2865 2868 2870 2870 2871 2872 2873 2875 2876 2878 2880 2882 2883 2884 2885 2885 2886
2875 2872 2869 2865 2862 2859 2856 2853 2850 2849 2847 2846 2845 2845 2845 2845 2844 2844 2844 2843 2842 2841 2843 2844 2848 2852 2856 2859 2861 2863 2864 2866 2867 2869 2871 2873 2876 2877 2878 2879 2880 2881 2882 2882
2869 2866 2863 2860 2858 2855 2852 2849 2846 2844 2843 2842 2842 2842 2842 2842 2842 2841 2841 2840 2839 2839 2840 2842 2845 2847 2850 2852 2854 2856 2859 2861 2864 2866 2869 2871 2873 2874 2875 2875 2876 2877 2878 2879
2864 2862 2859 2857 2854 2851 2848 2845 2842 2841 2840 2839 2839 2839 2839 2839 2839 2838 2838 2837 2837 2837 2838 2839 2841 2843 2845 2847 2850 2853 2856 2860 2862 2865 2866 2868 2869 2870 2871 2872 2873 2874 2874 2875
2860 2858 2855 2853 2851 2847 2844 2841 2839 2838 2838 2837 2837 2837 2836 2836 2837 2837 2837 2836 2836 2836 2837 2838 2840 2842 2844 2847 2850 2853 2856 2859 2861 2862 2863 2865 2866 2867 2868 2869 2870 2870 2870 2869
2856 2854 2852 2850 2847 2844 2841 2839 2837 2836 2835 2835 2835 2834 2834 2835 2835 2835 2835 2835 2835 2836 2837 2839 2841 2843 2845 2848 2850 2853 2855 2857 2858 2860 2861 2862 2863 2864 2864 2865 2865 2864 2863 2863
2852 2851 2849 2847 2845 2842 2840 2837 2835 2833 2833 2832 2832 2832 2832 2832 2832 2833 2833 2834 2835 2836 2838 2840 2842 2844 2845 2847 2849 2851 2853 2855 2856 2857 2858 2858 2859 2859 2859 2859 2858 2858 2857 2857